Location: Franzen
(48.6167°N, 15.3833°E)
Time: 13:36:46
(UTC+00:00)

Cosmos 2058 - Pass Details

Date: 22 April 2021
Orbit: 561 x 583 km, 82.5° (Epoch: 16 May)

Event Time Altitude Azimuth Distance (km) Brightness Sun altitude
Rises 18:57:17 0° 346° (NNW) 2,810 7.2 -9.3°
Reaches altitude 10° 18:59:31 10° 342° (NNW) 1,902 6.4 -9.6°
Maximum altitude 19:03:36 54° 266° (W) 707 3.7 -10.2°
Drops below altitude 10° 19:07:38 10° 188° (S) 1,873 5.3 -10.8°
Sets 19:09:50 0° 184° (S) 2,762 6.1 -11.1°
